New York Downtown Manhattan/w, NY

10:02 PM EDT on October 22, 2019 (GMT -0400)
New York Downtown Manhattan/w

Weather History for KJRB - August, 2019

Change the Weather History Date:

Thursday, August 22, 2019

  Actual Average (KNYC) Record (KNYC)
Temperature  
Mean Temperature 82 °F 75 °F  
Max Temperature 91 °F 82 °F 95 °F (1916)
Min Temperature 73 °F 67 °F 52 °F (1895)
Degree Days  
Heating Degree Days 0 0  
Month to date heating degree days 0  
Since 1 June heating degree days 19  
Since 1 July heating degree days 0  
Cooling Degree Days 17 10  
Month to date cooling degree days 236  
Year to date cooling degree days 872  
Since 1 June cooling degree days 803  
Growing Degree Days 32 (Base 50)    
Moisture  
Dew Point 71 °F    
Average Humidity 74    
Maximum Humidity 94    
Minimum Humidity 45    
Precipitation  
Precipitation 0.12 in 0.14 in 1.85 in (1994)
Month to date precipitation 3.28  
Year to date precipitation 32.08  
Snow  
Snow - 0.00 in 0.00 in (2002)
Month to date snowfall 0.0  
Since 1 July snowfall 0.0  
Snow Depth -    
Sea Level Pressure  
Sea Level Pressure 29.88 in    
Wind  
Wind Speed 6 mph ()    
Max Wind Speed 14 mph    
Max Gust Speed 44 mph    
Visibility 8.9 miles    
Events Rain    
T = Trace of Precipitation, MM = Missing Value Source: Averaged Metar Reports

Daily Weather History Graph

Daily Weather History Graph

Search for Another Location

Airport or City:

Astronomy

Aug. 22, 2019 Rise Set
Actual Time 6:13 AM EDT 7:44 PM EDT
Civil Twilight 5:44 AM EDT 8:12 PM EDT
Nautical Twilight 5:09 AM EDT 8:47 PM EDT
Astronomical Twilight 4:32 AM EDT 9:24 PM EDT
Moon 11:30 PM EDT (8/22) 12:48 PM EDT (8/22)
Length of Visible Light 14h 28m
Length of Day
13h 31m
Waning Gibbous, 60% of the Moon is Illuminated
Aug 22
Waning Gibbous
Aug 23
Last Quarter
Aug 30
New
Sep 5
First Quarter
Sep 14
Full

Hourly Weather History & Observations

Time (EDT) Temp. Heat Index Dew Point Humidity Pressure Visibility Wind Dir Wind Speed Gust Speed Precip Events Conditions
12:56 AM 78.1 °F - 73.0 °F 84% 29.86 in 10.0 mi Variable 3.5 mph - N/A   Clear
1:56 AM 77.0 °F - 73.0 °F 88% 29.87 in 10.0 mi WSW 6.9 mph - N/A   Clear
2:56 AM 75.9 °F - 73.0 °F 91% 29.84 in 10.0 mi SW 3.5 mph - N/A   Clear
3:56 AM 75.9 °F - 73.0 °F 91% 29.84 in 10.0 mi WSW 5.8 mph - N/A   Clear
4:56 AM 75.9 °F - 72.0 °F 87% 29.83 in 10.0 mi WSW 4.6 mph - N/A   Clear
5:56 AM 75.9 °F - 72.0 °F 87% 29.85 in 10.0 mi WSW 6.9 mph - N/A   Clear
6:56 AM 75.0 °F - 72.0 °F 90% 29.87 in 10.0 mi WSW 5.8 mph - N/A   Clear
7:56 AM 75.9 °F - 72.0 °F 87% 29.88 in 10.0 mi WSW 5.8 mph - N/A   Clear
8:56 AM 79.0 °F - 72.0 °F 79% 29.89 in 10.0 mi WSW 6.9 mph - N/A   Clear
9:56 AM 82.9 °F 87.5 °F 71.1 °F 67% 29.89 in 10.0 mi SW 5.8 mph - N/A   Clear
10:56 AM 84.9 °F 89.4 °F 70.0 °F 61% 29.89 in 9.0 mi WSW 5.8 mph - N/A   Clear
11:56 AM 87.1 °F 90.6 °F 68.0 °F 53% 29.89 in 10.0 mi Variable 5.8 mph - N/A   Clear
12:56 PM 89.1 °F 93.7 °F 69.1 °F 52% 29.88 in 10.0 mi SW 8.1 mph - N/A   Clear
1:56 PM 90.0 °F 95.4 °F 70.0 °F 52% 29.88 in 10.0 mi West 11.5 mph 43.7 mph N/A   Scattered Clouds
2:56 PM 90.0 °F 95.4 °F 70.0 °F 52% 29.87 in 10.0 mi West 10.4 mph 19.6 mph N/A   Scattered Clouds
3:56 PM 91.0 °F 95.6 °F 69.1 °F 48% 29.85 in 10.0 mi West 13.8 mph 25.3 mph N/A   Clear
4:56 PM 91.9 °F 95.9 °F 68.0 °F 45% 29.84 in 10.0 mi West 13.8 mph - N/A   Clear
5:56 PM 91.9 °F 96.9 °F 69.1 °F 47% 29.84 in 10.0 mi WSW 4.6 mph - N/A   Partly Cloudy
6:56 PM 86.0 °F 91.5 °F 71.1 °F 61% 29.85 in 10.0 mi ENE 8.1 mph - N/A   Partly Cloudy
7:56 PM 82.9 °F 87.5 °F 71.1 °F 67% 29.86 in 10.0 mi ENE 8.1 mph - N/A   Clear
8:42 PM 80.6 °F 83.9 °F 69.8 °F 70% 29.93 in 2.5 mi NNW 8.1 mph - 0.12 in Rain Heavy Rain
8:46 PM 75.2 °F - 69.8 °F 83% 29.92 in 1.5 mi Variable 5.8 mph - 0.12 in Rain Heavy Rain
8:56 PM 73.9 °F - 70.0 °F 87% 29.93 in 1.5 mi Calm Calm - 0.12 in Rain Rain
9:03 PM 73.4 °F - 69.8 °F 88% 29.92 in 4.0 mi NE 12.7 mph - 0.00 in Rain Light Rain
9:17 PM 73.4 °F - 71.6 °F 94% 29.91 in 10.0 mi ENE 6.9 mph - 0.00 in   Mostly Cloudy
9:56 PM 73.9 °F - 70.0 °F 87% 29.94 in 10.0 mi Calm Calm - 0.00 in Rain Light Rain
10:56 PM 73.9 °F - 71.1 °F 91% 29.92 in 10.0 mi Calm Calm - 0.00 in Rain Light Rain
11:56 PM 73.0 °F - 71.1 °F 93% 29.92 in 10.0 mi South 3.5 mph - 0.00 in   Overcast